TimeEST,TemperatureF,Dew PointF,Humidity,Sea Level PressureIn,VisibilityMPH,Wind Direction,Wind SpeedMPH,Gust SpeedMPH,PrecipitationIn,Events,Conditions,WindDirDegrees,DateUTC
12:53 AM,73.0,63.0,71,30.13,10.0,ENE,12.7,17.3,N/A,,Mostly Cloudy,70,2012-11-30 05:53:00
1:53 AM,71.1,64.9,81,30.12,5.0,ENE,13.8,-,0.03,Rain,Rain,60,2012-11-30 06:53:00
2:08 AM,69.8,64.4,83,30.12,4.0,ENE,4.6,-,0.04,Rain,Light Rain,60,2012-11-30 07:08:00
2:53 AM,71.1,64.9,81,30.11,10.0,NE,17.3,25.3,0.04,,Mostly Cloudy,50,2012-11-30 07:53:00
3:53 AM,70.0,64.9,84,30.11,10.0,NE,18.4,27.6,0.01,,Overcast,50,2012-11-30 08:53:00
4:02 AM,69.8,64.4,83,30.11,6.0,NE,17.3,25.3,0.01,Rain,Light Rain,40,2012-11-30 09:02:00
4:21 AM,69.8,64.4,83,30.10,10.0,NE,13.8,24.2,0.01,,Mostly Cloudy,40,2012-11-30 09:21:00
4:53 AM,70.0,64.9,84,30.10,10.0,NE,12.7,-,0.01,,Clear,40,2012-11-30 09:53:00
5:53 AM,70.0,64.9,84,30.12,10.0,NE,12.7,-,0.00,Rain,Light Rain,40,2012-11-30 10:53:00
6:25 AM,69.8,64.4,83,30.12,10.0,NNE,13.8,-,0.00,,Mostly Cloudy,30,2012-11-30 11:25:00
6:53 AM,70.0,64.9,84,30.13,10.0,NNE,11.5,-,0.00,,Mostly Cloudy,30,2012-11-30 11:53:00
7:53 AM,70.0,64.9,84,30.14,5.0,NE,15.0,-,0.01,Rain,Light Rain,50,2012-11-30 12:53:00
8:53 AM,71.1,66.0,84,30.15,10.0,NE,10.4,-,0.02,,Mostly Cloudy,40,2012-11-30 13:53:00
9:53 AM,75.0,66.0,73,30.17,10.0,ENE,19.6,-,N/A,,Mostly Cloudy,60,2012-11-30 14:53:00
10:53 AM,73.9,64.9,73,30.17,10.0,NE,16.1,-,N/A,,Mostly Cloudy,50,2012-11-30 15:53:00
11:53 AM,75.9,64.9,69,30.14,10.0,NE,16.1,-,N/A,,Mostly Cloudy,50,2012-11-30 16:53:00
12:53 PM,73.9,66.0,76,30.12,10.0,NE,16.1,-,0.02,,Mostly Cloudy,50,2012-11-30 17:53:00
1:27 PM,73.4,66.2,78,30.11,9.0,ENE,11.5,-,0.00,Rain,Light Rain,60,2012-11-30 18:27:00
1:39 PM,73.4,64.4,73,30.10,10.0,ENE,16.1,24.2,0.00,,Mostly Cloudy,70,2012-11-30 18:39:00
1:53 PM,73.4,64.9,75,30.10,10.0,ENE,17.3,24.2,0.00,,Scattered Clouds,70,2012-11-30 18:53:00
2:53 PM,89.1,64.0,43,30.10,10.0,ENE,17.3,24.2,0.00,,Mostly Cloudy,60,2012-11-30 19:53:00
3:53 PM,90.0,64.9,43,30.10,10.0,ENE,13.8,-,0.03,,Mostly Cloudy,60,2012-11-30 20:53:00
4:53 PM,89.1,63.0,42,30.10,10.0,ENE,13.8,-,N/A,,Partly Cloudy,60,2012-11-30 21:53:00
5:53 PM,73.0,63.0,71,30.10,10.0,ENE,12.7,-,N/A,,Clear,60,2012-11-30 22:53:00
6:53 PM,84.9,64.0,49,30.10,10.0,NE,12.7,-,N/A,,Clear,50,2012-11-30 23:53:00
7:53 PM,88.0,64.0,45,30.12,10.0,ENE,12.7,-,N/A,,Partly Cloudy,60,2012-12-01 00:53:00
8:53 PM,89.1,64.9,45,30.12,10.0,NE,10.4,-,N/A,,Clear,50,2012-12-01 01:53:00
10:53 PM,-9999,-9999,N/A,30.13,10.0,NE,11.5,-,N/A,,Clear,50,2012-12-01 03:53:00
11:53 PM,-9999,-9999,N/A,30.12,10.0,NE,12.7,-,N/A,,Mostly Cloudy,50,2012-12-01 04:53:00